TimeMST,TemperatureF,Dew PointF,Humidity,Sea Level PressureIn,VisibilityMPH,Wind Direction,Wind SpeedMPH,Gust SpeedMPH,PrecipitationIn,Events,Conditions,WindDirDegrees,DateUTC
12:15 AM,44.6,17.6,34,29.94,10.0,West,9.2,-,N/A,,Clear,270,2013-03-04 07:15:00
12:35 AM,44.6,15.8,31,29.93,10.0,WSW,12.7,-,N/A,,Clear,250,2013-03-04 07:35:00
12:55 AM,46.4,15.8,29,29.93,10.0,WSW,10.4,-,N/A,,Clear,240,2013-03-04 07:55:00
1:15 AM,46.4,15.8,29,29.93,10.0,WSW,12.7,-,N/A,,Partly Cloudy,250,2013-03-04 08:15:00
1:35 AM,48.2,15.8,27,29.93,10.0,West,10.4,-,N/A,,Partly Cloudy,280,2013-03-04 08:35:00
1:55 AM,46.4,15.8,29,29.93,10.0,West,9.2,-,N/A,,Partly Cloudy,270,2013-03-04 08:55:00
2:15 AM,46.4,14.0,27,29.93,10.0,West,16.1,-,N/A,,Partly Cloudy,260,2013-03-04 09:15:00
2:35 AM,46.4,14.0,27,29.92,10.0,WSW,13.8,-,N/A,,Clear,250,2013-03-04 09:35:00
2:55 AM,44.6,14.0,29,29.91,10.0,SW,9.2,-,N/A,,Clear,230,2013-03-04 09:55:00
3:15 AM,42.8,14.0,31,29.91,10.0,SW,9.2,-,N/A,,Clear,230,2013-03-04 10:15:00
3:35 AM,39.2,14.0,36,29.91,10.0,SW,12.7,-,N/A,,Clear,220,2013-03-04 10:35:00
3:55 AM,44.6,14.0,29,29.91,10.0,SW,10.4,-,N/A,,Clear,220,2013-03-04 10:55:00
4:15 AM,41.0,14.0,33,29.91,10.0,SW,8.1,-,N/A,,Partly Cloudy,220,2013-03-04 11:15:00
4:35 AM,41.0,14.0,33,29.91,10.0,North,4.6,-,N/A,,Partly Cloudy,10,2013-03-04 11:35:00
6:50 AM,41.0,14.0,33,29.93,10.0,SSW,6.9,-,N/A,,Mostly Cloudy,200,2013-03-04 13:50:00
7:50 AM,46.4,14.0,27,29.93,10.0,SW,8.1,-,N/A,,Scattered Clouds,230,2013-03-04 14:50:00
8:50 AM,48.2,15.8,27,29.93,10.0,SSW,8.1,-,N/A,,Mostly Cloudy,200,2013-03-04 15:50:00
9:50 AM,50.0,15.8,26,29.93,10.0,SSW,11.5,-,N/A,,Mostly Cloudy,200,2013-03-04 16:50:00
10:24 AM,53.6,19.4,26,29.92,10.0,WNW,23.0,31.1,N/A,,Mostly Cloudy,290,2013-03-04 17:24:00
10:50 AM,53.6,19.4,26,29.91,10.0,WNW,26.5,35.7,N/A,,Mostly Cloudy,290,2013-03-04 17:50:00
11:50 AM,53.6,19.4,26,29.89,10.0,WNW,24.2,34.5,N/A,,Mostly Cloudy,290,2013-03-04 18:50:00
12:50 PM,57.2,15.8,20,29.87,10.0,West,32.2,42.6,N/A,,Mostly Cloudy,270,2013-03-04 19:50:00
1:50 PM,57.2,14.0,18,29.86,10.0,West,32.2,41.4,N/A,,Mostly Cloudy,280,2013-03-04 20:50:00
2:50 PM,55.4,17.6,23,29.88,10.0,NW,29.9,36.8,N/A,,Mostly Cloudy,310,2013-03-04 21:50:00
3:50 PM,55.4,17.6,23,29.91,10.0,WNW,28.8,36.8,N/A,,Scattered Clouds,300,2013-03-04 22:50:00
4:50 PM,55.4,17.6,23,29.93,10.0,NW,17.3,25.3,N/A,,Scattered Clouds,310,2013-03-04 23:50:00
5:50 PM,53.6,15.8,22,29.96,10.0,WNW,16.1,-,N/A,,Scattered Clouds,300,2013-03-05 00:50:00
6:50 PM,48.2,15.8,27,30.01,10.0,NW,12.7,24.2,N/A,,Clear,310,2013-03-05 01:50:00
7:50 PM,44.6,15.8,31,30.04,10.0,WNW,5.8,-,N/A,,Clear,290,2013-03-05 02:50:00
8:50 PM,39.2,14.0,36,30.07,10.0,WNW,9.2,-,N/A,,Clear,300,2013-03-05 03:50:00
9:15 PM,44.6,15.8,31,30.08,10.0,NW,12.7,-,N/A,,Clear,320,2013-03-05 04:15:00
9:35 PM,41.0,15.8,36,30.09,10.0,NW,10.4,-,N/A,,Clear,310,2013-03-05 04:35:00
9:50 PM,41.0,15.8,36,30.10,10.0,WNW,10.4,-,N/A,,Clear,300,2013-03-05 04:50:00
9:55 PM,39.2,14.0,36,30.10,10.0,NW,11.5,-,N/A,,Clear,310,2013-03-05 04:55:00
10:15 PM,39.2,14.0,36,30.11,10.0,NW,11.5,-,N/A,,Clear,310,2013-03-05 05:15:00
10:35 PM,37.4,14.0,38,30.12,10.0,NW,9.2,-,N/A,,Clear,310,2013-03-05 05:35:00
10:55 PM,35.6,14.0,41,30.13,10.0,NNW,8.1,-,N/A,,Clear,340,2013-03-05 05:55:00
11:15 PM,35.6,14.0,41,30.15,10.0,Calm,Calm,-,N/A,,Clear,0,2013-03-05 06:15:00
11:35 PM,37.4,14.0,38,30.16,10.0,Calm,Calm,-,N/A,,Clear,0,2013-03-05 06:35:00
11:55 PM,35.6,14.0,41,30.16,10.0,NW,8.1,-,N/A,,Clear,320,2013-03-05 06:55:00